date,time,SUV Intensity [MED/Hr],UV Index,Daily total [MED],Since Last [MED]
27/02/2022,00:05:09,0.001,0.0,0.0,0.0
27/02/2022,00:06:09,0.000,0.0,0.0,0.0
27/02/2022,00:07:08,-0.000,0.0,0.0,0.0
27/02/2022,00:08:09,-0.001,0.0,0.0,0.0
27/02/2022,00:09:09,0.000,0.0,0.0,0.0
27/02/2022,00:10:09,0.000,0.0,0.0,0.0
27/02/2022,00:11:08,-0.000,0.0,0.0,0.0
27/02/2022,00:12:09,0.000,0.0,0.0,0.0
27/02/2022,00:13:09,-0.001,0.0,0.0,0.0
27/02/2022,00:14:09,0.000,0.0,0.0,0.0
27/02/2022,00:15:09,-0.001,0.0,0.0,0.0
27/02/2022,00:16:17,0.000,0.0,0.0,0.0
27/02/2022,00:17:09,0.000,0.0,0.0,0.0
27/02/2022,00:18:09,0.000,0.0,0.0,0.0
27/02/2022,00:19:09,0.000,0.0,0.0,0.0
27/02/2022,00:20:08,-0.000,0.0,0.0,0.0
27/02/2022,00:21:09,0.001,0.0,0.0,0.0
27/02/2022,00:22:09,0.000,0.0,0.0,0.0
27/02/2022,00:23:10,0.000,0.0,0.0,0.0
27/02/2022,00:24:17,0.000,0.0,0.0,0.0
27/02/2022,00:25:09,0.000,0.0,0.0,0.0
27/02/2022,00:26:08,0.000,0.0,0.0,0.0
27/02/2022,00:27:09,-0.000,0.0,0.0,0.0
27/02/2022,00:28:09,0.000,0.0,0.0,0.0
27/02/2022,00:29:09,0.000,0.0,0.0,0.0
27/02/2022,00:30:09,0.000,0.0,0.0,0.0
27/02/2022,00:31:09,0.000,0.0,0.0,0.0
27/02/2022,00:32:09,0.000,0.0,0.0,0.0
27/02/2022,00:33:09,-0.001,0.0,0.0,0.0
27/02/2022,00:34:09,-0.000,0.0,0.0,0.0
27/02/2022,00:35:17,0.000,0.0,0.0,0.0
27/02/2022,00:36:09,-0.001,0.0,0.0,0.0
27/02/2022,00:37:08,0.000,0.0,0.0,0.0
27/02/2022,00:38:18,-0.000,0.0,0.0,0.0
27/02/2022,00:39:09,0.000,0.0,0.0,0.0
27/02/2022,00:40:10,0.001,0.0,0.0,0.0
27/02/2022,00:41:09,0.000,0.0,0.0,0.0
27/02/2022,00:42:17,0.000,0.0,0.0,0.0
27/02/2022,00:43:09,0.000,0.0,0.0,0.0
27/02/2022,00:44:17,0.000,0.0,0.0,0.0
27/02/2022,00:45:09,0.000,0.0,0.0,0.0
27/02/2022,00:46:09,0.000,0.0,0.0,0.0
27/02/2022,00:47:09,0.000,0.0,0.0,0.0
27/02/2022,00:48:09,-0.000,0.0,0.0,0.0
27/02/2022,00:49:09,0.000,0.0,0.0,0.0
27/02/2022,00:50:09,-0.000,0.0,0.0,0.0
27/02/2022,00:51:09,0.000,0.0,0.0,0.0
27/02/2022,00:52:09,0.000,0.0,0.0,0.0
27/02/2022,00:53:18,0.001,0.0,0.0,0.0
27/02/2022,00:54:09,0.000,0.0,0.0,0.0
27/02/2022,00:55:09,0.000,0.0,0.0,0.0
27/02/2022,00:56:09,0.000,0.0,0.0,0.0
27/02/2022,00:57:09,-0.000,0.0,0.0,0.0
27/02/2022,00:58:09,0.000,0.0,0.0,0.0
27/02/2022,00:59:09,0.000,0.0,0.0,0.0
27/02/2022,01:00:09,0.000,0.0,0.0,0.0
27/02/2022,01:01:17,0.000,0.0,0.0,0.0
27/02/2022,01:02:09,0.001,0.0,0.0,0.0
27/02/2022,01:03:09,0.001,0.0,0.0,0.0
27/02/2022,01:04:09,0.000,0.0,0.0,0.0
27/02/2022,01:05:09,0.000,0.0,0.0,0.0
27/02/2022,01:06:09,0.000,0.0,0.0,0.0
27/02/2022,01:07:09,-0.001,0.0,0.0,0.0
27/02/2022,01:08:09,0.001,0.0,0.0,0.0
27/02/2022,01:09:09,0.000,0.0,0.0,0.0
27/02/2022,01:10:09,-0.001,0.0,0.0,0.0
27/02/2022,01:11:09,0.000,0.0,0.0,0.0
27/02/2022,01:12:09,0.000,0.0,0.0,0.0
27/02/2022,01:13:09,0.000,0.0,0.0,0.0
27/02/2022,01:14:09,0.000,0.0,0.0,0.0
27/02/2022,01:14:56,-0.000,0.0,0.0,0.0
27/02/2022,01:16:10,0.000,0.0,0.0,0.0
27/02/2022,01:17:09,0.000,0.0,0.0,0.0
27/02/2022,01:18:09,0.001,0.0,0.0,0.0
27/02/2022,01:19:09,-0.000,0.0,0.0,0.0
27/02/2022,01:20:09,0.001,0.0,0.0,0.0
27/02/2022,01:21:09,-0.000,0.0,0.0,0.0
27/02/2022,01:22:09,0.000,0.0,0.0,0.0
27/02/2022,01:23:09,-0.000,0.0,0.0,0.0
27/02/2022,01:24:09,0.000,0.0,0.0,0.0
27/02/2022,01:25:09,-0.001,0.0,0.0,0.0
27/02/2022,01:26:09,0.000,0.0,0.0,0.0
27/02/2022,01:27:10,0.000,0.0,0.0,0.0
27/02/2022,01:28:09,0.000,0.0,0.0,0.0
27/02/2022,01:29:09,0.001,0.0,0.0,0.0
27/02/2022,01:30:17,0.000,0.0,0.0,0.0
27/02/2022,01:31:09,0.000,0.0,0.0,0.0
27/02/2022,01:32:09,0.000,0.0,0.0,0.0
27/02/2022,01:33:11,0.000,0.0,0.0,0.0
27/02/2022,01:34:09,-0.001,0.0,0.0,0.0
27/02/2022,01:35:09,0.001,0.0,0.0,0.0
27/02/2022,01:36:10,-0.001,0.0,0.0,0.0
27/02/2022,01:37:10,0.000,0.0,0.0,0.0
27/02/2022,01:38:17,0.001,0.0,0.0,0.0
27/02/2022,01:39:09,0.000,0.0,0.0,0.0
27/02/2022,01:40:09,0.000,0.0,0.0,0.0
27/02/2022,01:41:17,0.000,0.0,0.0,0.0
27/02/2022,01:42:09,0.001,0.0,0.0,0.0
27/02/2022,01:43:09,0.000,0.0,0.0,0.0
27/02/2022,01:44:09,0.000,0.0,0.0,0.0
27/02/2022,01:45:09,0.001,0.0,0.0,0.0
27/02/2022,01:46:09,-0.001,0.0,0.0,0.0
27/02/2022,01:47:09,0.000,0.0,0.0,0.0
27/02/2022,01:48:09,0.000,0.0,0.0,0.0
27/02/2022,01:49:17,0.001,0.0,0.0,0.0
27/02/2022,01:50:10,0.000,0.0,0.0,0.0
27/02/2022,01:51:09,-0.000,0.0,0.0,0.0
27/02/2022,01:52:17,0.000,0.0,0.0,0.0
27/02/2022,01:53:10,0.000,0.0,0.0,0.0
27/02/2022,01:54:09,0.000,0.0,0.0,0.0
27/02/2022,01:55:09,0.001,0.0,0.0,0.0
27/02/2022,01:56:09,0.002,0.0,0.0,0.0
27/02/2022,01:57:09,0.001,0.0,0.0,0.0
27/02/2022,01:58:09,0.001,0.0,0.0,0.0
27/02/2022,01:59:09,0.000,0.0,0.0,0.0
27/02/2022,02:00:17,0.001,0.0,0.0,0.0
27/02/2022,02:01:09,0.000,0.0,0.0,0.0
27/02/2022,02:02:09,0.001,0.0,0.0,0.0
27/02/2022,02:03:10,0.000,0.0,0.0,0.0
27/02/2022,02:04:09,-0.000,0.0,0.0,0.0
27/02/2022,02:05:09,0.001,0.0,0.0,0.0
27/02/2022,02:06:09,-0.000,0.0,0.0,0.0
27/02/2022,02:07:09,0.000,0.0,0.0,0.0
27/02/2022,02:09:10,0.000,0.0,0.0,0.0
27/02/2022,02:10:09,0.000,0.0,0.0,0.0
27/02/2022,02:11:09,-0.000,0.0,0.0,0.0
27/02/2022,02:12:09,0.001,0.0,0.0,0.0
27/02/2022,02:13:09,0.000,0.0,0.0,0.0
27/02/2022,02:14:09,0.001,0.0,0.0,0.0
27/02/2022,02:15:18,0.000,0.0,0.0,0.0
27/02/2022,02:16:08,0.000,0.0,0.0,0.0
27/02/2022,02:17:09,0.000,0.0,0.0,0.0
27/02/2022,02:18:09,0.000,0.0,0.0,0.0
27/02/2022,02:19:09,0.001,0.0,0.0,0.0
27/02/2022,02:20:09,0.001,0.0,0.0,0.0
27/02/2022,02:21:09,0.000,0.0,0.0,0.0
27/02/2022,02:22:09,0.001,0.0,0.0,0.0
27/02/2022,02:23:09,0.000,0.0,0.0,0.0
27/02/2022,02:25:10,0.000,0.0,0.0,0.0
27/02/2022,02:26:17,0.001,0.0,0.0,0.0
27/02/2022,02:27:09,0.001,0.0,0.0,0.0
27/02/2022,02:28:11,0.000,0.0,0.0,0.0
27/02/2022,02:29:09,-0.001,0.0,0.0,0.0
27/02/2022,02:30:09,0.001,0.0,0.0,0.0
27/02/2022,02:31:10,0.000,0.0,0.0,0.0
27/02/2022,02:32:09,0.001,0.0,0.0,0.0
27/02/2022,02:33:09,-0.001,0.0,0.0,0.0
27/02/2022,02:34:10,0.001,0.0,0.0,0.0
27/02/2022,02:35:09,0.000,0.0,0.0,0.0
27/02/2022,02:36:09,0.000,0.0,0.0,0.0
27/02/2022,02:37:10,-0.000,0.0,0.0,0.0
27/02/2022,02:38:09,-0.000,0.0,0.0,0.0
27/02/2022,02:39:09,0.001,0.0,0.0,0.0
27/02/2022,02:40:09,0.001,0.0,0.0,0.0
27/02/2022,02:41:18,0.000,0.0,0.0,0.0
27/02/2022,02:42:09,0.001,0.0,0.0,0.0
27/02/2022,02:43:09,0.000,0.0,0.0,0.0
27/02/2022,02:44:17,0.000,0.0,0.0,0.0
27/02/2022,02:45:09,0.000,0.0,0.0,0.0
27/02/2022,02:46:09,0.001,0.0,0.0,0.0
27/02/2022,02:47:09,-0.000,0.0,0.0,0.0
27/02/2022,02:48:09,0.000,0.0,0.0,0.0
27/02/2022,02:49:09,0.001,0.0,0.0,0.0
27/02/2022,02:50:09,-0.001,0.0,0.0,0.0
27/02/2022,02:51:09,0.001,0.0,0.0,0.0
27/02/2022,02:52:09,-0.000,0.0,0.0,0.0
27/02/2022,02:53:09,-0.000,0.0,0.0,0.0
27/02/2022,02:54:09,-0.000,0.0,0.0,0.0
27/02/2022,02:55:09,-0.000,0.0,0.0,0.0
27/02/2022,02:56:09,0.001,0.0,0.0,0.0
27/02/2022,02:57:10,0.000,0.0,0.0,0.0
27/02/2022,02:58:09,0.001,0.0,0.0,0.0
27/02/2022,02:59:20,-0.000,0.0,0.0,0.0
27/02/2022,03:00:09,0.000,0.0,0.0,0.0
27/02/2022,03:01:09,0.000,0.0,0.0,0.0
27/02/2022,03:02:17,0.001,0.0,0.0,0.0
27/02/2022,03:03:09,0.000,0.0,0.0,0.0
27/02/2022,03:04:10,0.000,0.0,0.0,0.0
27/02/2022,03:05:09,0.001,0.0,0.0,0.0
27/02/2022,03:06:09,0.000,0.0,0.0,0.0
27/02/2022,03:07:09,-0.000,0.0,0.0,0.0
27/02/2022,03:08:10,0.000,0.0,0.0,0.0
27/02/2022,03:09:11,0.001,0.0,0.0,0.0
27/02/2022,03:10:17,0.001,0.0,0.0,0.0
27/02/2022,03:11:09,0.001,0.0,0.0,0.0
27/02/2022,03:12:10,-0.000,0.0,0.0,0.0
27/02/2022,03:13:09,0.001,0.0,0.0,0.0
27/02/2022,03:14:11,0.002,0.0,0.0,0.0
27/02/2022,03:15:09,0.000,0.0,0.0,0.0
27/02/2022,03:16:09,0.001,0.0,0.0,0.0
27/02/2022,03:17:09,0.001,0.0,0.0,0.0
27/02/2022,03:18:10,0.000,0.0,0.0,0.0
27/02/2022,03:19:10,0.000,0.0,0.0,0.0
27/02/2022,03:20:10,0.000,0.0,0.0,0.0
27/02/2022,03:21:09,0.000,0.0,0.0,0.0
27/02/2022,03:22:09,0.001,0.0,0.0,0.0
27/02/2022,03:23:09,0.001,0.0,0.0,0.0
27/02/2022,03:24:09,0.000,0.0,0.0,0.0
27/02/2022,03:25:18,0.001,0.0,0.0,0.0
27/02/2022,03:26:09,0.000,0.0,0.0,0.0
27/02/2022,03:27:09,0.000,0.0,0.0,0.0
27/02/2022,03:28:09,0.001,0.0,0.0,0.0
27/02/2022,03:29:10,-0.000,0.0,0.0,0.0
27/02/2022,03:30:10,0.001,0.0,0.0,0.0
27/02/2022,03:31:09,0.001,0.0,0.0,0.0
27/02/2022,03:32:18,0.000,0.0,0.0,0.0
27/02/2022,03:33:09,0.000,0.0,0.0,0.0
27/02/2022,03:34:09,-0.000,0.0,0.0,0.0
27/02/2022,03:35:09,0.001,0.0,0.0,0.0
27/02/2022,03:36:09,0.001,0.0,0.0,0.0
27/02/2022,03:37:09,0.001,0.0,0.0,0.0
27/02/2022,03:38:09,-0.000,0.0,0.0,0.0
27/02/2022,03:39:09,0.001,0.0,0.0,0.0
27/02/2022,03:40:09,0.001,0.0,0.0,0.0
27/02/2022,03:41:10,0.000,0.0,0.0,0.0
27/02/2022,03:42:09,-0.000,0.0,0.0,0.0
27/02/2022,03:43:09,0.001,0.0,0.0,0.0
27/02/2022,03:44:18,0.002,0.0,0.0,0.0
27/02/2022,03:45:09,0.001,0.0,0.0,0.0
27/02/2022,03:46:09,0.001,0.0,0.0,0.0
27/02/2022,03:47:09,0.001,0.0,0.0,0.0
27/02/2022,03:48:09,-0.001,0.0,0.0,0.0
27/02/2022,03:49:09,0.001,0.0,0.0,0.0
27/02/2022,03:50:10,0.001,0.0,0.0,0.0
27/02/2022,03:51:09,0.000,0.0,0.0,0.0
27/02/2022,03:52:09,0.001,0.0,0.0,0.0
27/02/2022,03:53:09,0.001,0.0,0.0,0.0
27/02/2022,03:54:10,-0.000,0.0,0.0,0.0
27/02/2022,03:55:09,0.000,0.0,0.0,0.0
27/02/2022,03:56:09,0.001,0.0,0.0,0.0
27/02/2022,03:57:22,0.001,0.0,0.0,0.0
27/02/2022,03:59:10,0.001,0.0,0.0,0.0
27/02/2022,04:00:09,0.001,0.0,0.0,0.0
27/02/2022,04:01:09,0.001,0.0,0.0,0.0
27/02/2022,04:02:09,0.001,0.0,0.0,0.0
27/02/2022,04:03:11,0.001,0.0,0.0,0.0
27/02/2022,04:04:09,0.002,0.0,0.0,0.0
27/02/2022,04:05:09,0.002,0.0,0.0,0.0
27/02/2022,04:06:09,0.001,0.0,0.0,0.0
27/02/2022,04:07:09,0.000,0.0,0.0,0.0
27/02/2022,04:08:09,-0.000,0.0,0.0,0.0
27/02/2022,04:09:09,0.000,0.0,0.0,0.0
27/02/2022,04:10:09,0.001,0.0,0.0,0.0
27/02/2022,04:11:09,0.001,0.0,0.0,0.0
27/02/2022,04:12:10,-0.000,0.0,0.0,0.0
27/02/2022,04:13:10,0.001,0.0,0.0,0.0
27/02/2022,04:14:09,0.000,0.0,0.0,0.0
27/02/2022,04:15:09,0.001,0.0,0.0,0.0
27/02/2022,04:16:09,0.001,0.0,0.0,0.0
27/02/2022,04:17:09,-0.000,0.0,0.0,0.0
27/02/2022,04:18:09,0.001,0.0,0.0,0.0
27/02/2022,04:19:10,0.001,0.0,0.0,0.0
27/02/2022,04:20:18,0.001,0.0,0.0,0.0
27/02/2022,04:21:18,0.001,0.0,0.0,0.0
27/02/2022,04:22:10,0.001,0.0,0.0,0.0
27/02/2022,04:23:09,0.002,0.0,0.0,0.0
27/02/2022,04:24:09,0.001,0.0,0.0,0.0
27/02/2022,04:25:09,0.002,0.0,0.0,0.0
27/02/2022,04:26:10,0.001,0.0,0.0,0.0
27/02/2022,04:27:10,0.001,0.0,0.0,0.0
27/02/2022,04:28:17,0.002,0.0,0.0,0.0
27/02/2022,04:29:09,0.001,0.0,0.0,0.0
27/02/2022,04:30:10,0.001,0.0,0.0,0.0
27/02/2022,04:31:09,0.002,0.0,0.0,0.0
27/02/2022,04:32:09,0.000,0.0,0.0,0.0
27/02/2022,04:33:09,0.001,0.0,0.0,0.0
27/02/2022,04:34:09,0.001,0.0,0.0,0.0
27/02/2022,04:35:10,0.000,0.0,0.0,0.0
27/02/2022,04:36:09,0.000,0.0,0.0,0.0
27/02/2022,04:37:09,0.002,0.0,0.0,0.0
27/02/2022,04:38:09,0.002,0.0,0.0,0.0
27/02/2022,04:39:10,0.001,0.0,0.0,0.0
27/02/2022,04:40:10,0.001,0.0,0.0,0.0
27/02/2022,04:41:11,0.002,0.0,0.0,0.0
27/02/2022,04:42:10,0.001,0.0,0.0,0.0
27/02/2022,04:43:17,0.001,0.0,0.0,0.0
27/02/2022,04:44:09,-0.000,0.0,0.0,0.0
27/02/2022,04:45:10,0.001,0.0,0.0,0.0
27/02/2022,04:46:09,0.001,0.0,0.0,0.0
27/02/2022,04:47:09,0.001,0.0,0.0,0.0
27/02/2022,04:48:09,0.002,0.0,0.0,0.0
27/02/2022,04:49:11,0.001,0.0,0.0,0.0
27/02/2022,04:50:09,0.001,0.0,0.0,0.0
27/02/2022,04:51:18,0.002,0.0,0.0,0.0
27/02/2022,04:52:10,0.002,0.0,0.0,0.0
27/02/2022,04:53:09,0.000,0.0,0.0,0.0
27/02/2022,04:54:17,0.001,0.0,0.0,0.0
27/02/2022,04:55:09,0.001,0.0,0.0,0.0
27/02/2022,04:56:09,0.001,0.0,0.0,0.0
27/02/2022,04:57:09,-0.000,0.0,0.0,0.0
27/02/2022,04:58:10,0.000,0.0,0.0,0.0
27/02/2022,04:59:10,0.000,0.0,0.0,0.0
27/02/2022,05:00:09,0.001,0.0,0.0,0.0
27/02/2022,05:01:09,0.000,0.0,0.0,0.0
27/02/2022,05:02:17,0.001,0.0,0.0,0.0
27/02/2022,05:03:09,0.001,0.0,0.0,0.0
27/02/2022,05:04:10,0.000,0.0,0.0,0.0
27/02/2022,05:05:10,0.000,0.0,0.0,0.0
27/02/2022,05:06:09,0.002,0.0,0.0,0.0
27/02/2022,05:07:09,0.002,0.0,0.0,0.0
27/02/2022,05:08:09,0.000,0.0,0.0,0.0
27/02/2022,05:09:10,0.001,0.0,0.0,0.0
27/02/2022,05:10:10,0.001,0.0,0.0,0.0
27/02/2022,05:11:10,0.000,0.0,0.0,0.0
27/02/2022,05:12:18,0.000,0.0,0.0,0.0
27/02/2022,05:13:10,0.002,0.0,0.0,0.0
27/02/2022,05:14:09,0.001,0.0,0.0,0.0
27/02/2022,05:15:09,0.001,0.0,0.0,0.0
27/02/2022,05:16:10,0.001,0.0,0.0,0.0
27/02/2022,05:17:10,0.001,0.0,0.0,0.0
27/02/2022,05:18:09,0.001,0.0,0.0,0.0
27/02/2022,05:19:09,0.001,0.0,0.0,0.0
27/02/2022,05:20:17,0.001,0.0,0.0,0.0
27/02/2022,05:21:09,0.001,0.0,0.0,0.0
27/02/2022,05:22:10,-0.000,0.0,0.0,0.0
27/02/2022,05:23:10,0.001,0.0,0.0,0.0
27/02/2022,05:24:09,0.001,0.0,0.0,0.0
27/02/2022,05:25:09,0.001,0.0,0.0,0.0
27/02/2022,05:26:10,0.002,0.0,0.0,0.0
27/02/2022,05:27:09,0.001,0.0,0.0,0.0
27/02/2022,05:28:09,0.001,0.0,0.0,0.0
27/02/2022,05:29:09,0.001,0.0,0.0,0.0
27/02/2022,05:30:10,0.001,0.0,0.0,0.0
27/02/2022,05:31:09,0.001,0.0,0.0,0.0
27/02/2022,05:32:10,0.001,0.0,0.0,0.0
27/02/2022,05:33:10,0.000,0.0,0.0,0.0
27/02/2022,05:34:09,0.001,0.0,0.0,0.0
27/02/2022,05:35:09,0.001,0.0,0.0,0.0
27/02/2022,05:36:10,0.001,0.0,0.0,0.0
27/02/2022,05:37:09,0.002,0.0,0.0,0.0
27/02/2022,05:38:09,0.001,0.0,0.0,0.0
27/02/2022,05:39:10,0.001,0.0,0.0,0.0
27/02/2022,05:40:10,0.001,0.0,0.0,0.0
27/02/2022,05:41:09,0.000,0.0,0.0,0.0
27/02/2022,05:42:09,0.000,0.0,0.0,0.0
27/02/2022,05:43:10,0.001,0.0,0.0,0.0
27/02/2022,05:44:09,0.001,0.0,0.0,0.0
27/02/2022,05:45:09,0.001,0.0,0.0,0.0
27/02/2022,05:46:17,0.001,0.0,0.0,0.0
27/02/2022,05:47:11,0.001,0.0,0.0,0.0
27/02/2022,05:48:09,0.001,0.0,0.0,0.0
27/02/2022,05:49:09,0.001,0.0,0.0,0.0
27/02/2022,05:50:10,0.001,0.0,0.0,0.0
27/02/2022,05:51:10,-0.000,0.0,0.0,0.0
27/02/2022,05:52:10,0.001,0.0,0.0,0.0
27/02/2022,05:53:09,0.000,0.0,0.0,0.0
27/02/2022,05:54:18,0.000,0.0,0.0,0.0
27/02/2022,05:55:20,0.001,0.0,0.0,0.0
27/02/2022,05:57:10,0.001,0.0,0.0,0.0
27/02/2022,05:58:10,0.001,0.0,0.0,0.0
27/02/2022,05:59:09,0.001,0.0,0.0,0.0
27/02/2022,06:00:09,0.002,0.0,0.0,0.0
27/02/2022,06:01:09,0.001,0.0,0.0,0.0
27/02/2022,06:02:10,0.002,0.0,0.0,0.0
27/02/2022,06:03:09,0.001,0.0,0.0,0.0
27/02/2022,06:04:09,0.001,0.0,0.0,0.0
27/02/2022,06:05:10,0.001,0.0,0.0,0.0
27/02/2022,06:06:10,-0.000,0.0,0.0,0.0
27/02/2022,06:07:09,0.001,0.0,0.0,0.0
27/02/2022,06:08:17,0.001,0.0,0.0,0.0
27/02/2022,06:09:09,0.001,0.0,0.0,0.0
27/02/2022,06:10:09,0.001,0.0,0.0,0.0
27/02/2022,06:11:10,0.001,0.0,0.0,0.0
27/02/2022,06:12:10,0.001,0.0,0.0,0.0
27/02/2022,06:13:10,0.001,0.0,0.0,0.0
27/02/2022,06:14:09,0.001,0.0,0.0,0.0
27/02/2022,06:15:10,0.001,0.0,0.0,0.0
27/02/2022,06:16:11,0.001,0.0,0.0,0.0
27/02/2022,06:17:09,0.000,0.0,0.0,0.0
27/02/2022,06:18:09,0.001,0.0,0.0,0.0
27/02/2022,06:19:10,0.000,0.0,0.0,0.0
27/02/2022,06:20:10,0.001,0.0,0.0,0.0
27/02/2022,06:21:09,0.001,0.0,0.0,0.0
27/02/2022,06:22:18,0.001,0.0,0.0,0.0
27/02/2022,06:23:09,0.001,0.0,0.0,0.0
27/02/2022,06:24:10,0.001,0.0,0.0,0.0
27/02/2022,06:25:10,0.001,0.0,0.0,0.0
27/02/2022,06:26:18,0.001,0.0,0.0,0.0
27/02/2022,06:27:18,0.001,0.0,0.0,0.0
27/02/2022,06:28:09,0.001,0.0,0.0,0.0
27/02/2022,06:29:09,0.002,0.0,0.0,0.0
27/02/2022,06:30:10,0.001,0.0,0.0,0.0
27/02/2022,06:31:10,0.002,0.0,0.0,0.0
27/02/2022,06:32:10,0.002,0.0,0.0,0.0
27/02/2022,06:33:09,0.001,0.0,0.0,0.0
27/02/2022,06:34:17,-0.000,0.0,0.0,0.0
27/02/2022,06:35:09,0.002,0.0,0.0,0.0
27/02/2022,06:36:10,0.001,0.0,0.0,0.0
27/02/2022,06:37:10,0.001,0.0,0.0,0.0
27/02/2022,06:38:10,0.001,0.0,0.0,0.0
27/02/2022,06:39:09,0.002,0.0,0.0,0.0
27/02/2022,06:40:09,0.001,0.0,0.0,0.0
27/02/2022,06:41:10,0.001,0.0,0.0,0.0
27/02/2022,06:42:10,0.001,0.0,0.0,0.0
27/02/2022,06:43:10,0.002,0.0,0.0,0.0
27/02/2022,06:44:09,0.001,0.0,0.0,0.0
27/02/2022,06:45:17,0.001,0.0,0.0,0.0
27/02/2022,06:46:09,0.002,0.0,0.0,0.0
27/02/2022,06:47:10,0.002,0.0,0.0,0.0
27/02/2022,06:48:09,0.002,0.0,0.0,0.0
27/02/2022,06:49:10,0.001,0.0,0.0,0.0
27/02/2022,06:50:10,0.002,0.0,0.0,0.0
27/02/2022,06:51:10,0.001,0.0,0.0,0.0
27/02/2022,06:52:09,0.002,0.0,0.0,0.0
27/02/2022,06:53:10,0.002,0.0,0.0,0.0
27/02/2022,06:54:10,0.002,0.0,0.0,0.0
27/02/2022,06:55:10,0.002,0.0,0.0,0.0
27/02/2022,06:56:09,0.002,0.0,0.0,0.0
27/02/2022,06:57:09,0.003,0.0,0.0,0.0
27/02/2022,06:58:10,0.003,0.0,0.0,0.0
27/02/2022,06:59:09,0.002,0.0,0.0,0.0
27/02/2022,07:00:10,0.003,0.0,0.0,0.0
27/02/2022,07:01:10,0.003,0.0,0.0,0.0
27/02/2022,07:02:10,0.003,0.0,0.0,0.0
27/02/2022,07:03:18,0.003,0.0,0.0,0.0
27/02/2022,07:04:43,0.003,0.0,0.0,0.0
27/02/2022,07:06:10,0.004,0.0,0.0,0.0
27/02/2022,07:07:11,0.004,0.0,0.0,0.0
27/02/2022,07:08:10,0.005,0.0,0.0,0.0
27/02/2022,07:09:10,0.005,0.0,0.0,0.0
27/02/2022,07:10:09,0.005,0.0,0.0,0.0
27/02/2022,07:11:18,0.004,0.0,0.0,0.0
27/02/2022,07:12:08,0.006,0.0,0.0,0.0
27/02/2022,07:13:09,0.006,0.0,0.0,0.0
27/02/2022,07:14:10,0.006,0.0,0.0,0.0
27/02/2022,07:15:18,0.007,0.0,0.0,0.0
27/02/2022,07:16:10,0.006,0.0,0.0,0.0
27/02/2022,07:17:09,0.007,0.0,0.001,0.001
27/02/2022,07:18:10,0.008,0.0,0.001,0.0
27/02/2022,07:19:10,0.008,0.0,0.001,0.0
27/02/2022,07:20:10,0.007,0.0,0.001,0.0
27/02/2022,07:21:10,0.009,0.0,0.001,0.0
27/02/2022,07:22:18,0.009,0.0,0.001,0.0
27/02/2022,07:23:09,0.009,0.0,0.001,0.0
27/02/2022,07:24:10,0.010,0.0,0.002,0.001
27/02/2022,07:25:09,0.010,0.0,0.002,0.0
27/02/2022,07:26:09,0.011,0.0,0.002,0.0
27/02/2022,07:27:10,0.011,0.0,0.002,0.0
27/02/2022,07:28:09,0.011,0.0,0.002,0.0
27/02/2022,07:29:10,0.011,0.0,0.002,0.0
27/02/2022,07:30:18,0.012,0.0,0.003,0.001
27/02/2022,07:31:10,0.013,0.0,0.003,0.0
27/02/2022,07:32:10,0.014,0.0,0.003,0.0
27/02/2022,07:33:10,0.015,0.0,0.003,0.0
27/02/2022,07:34:09,0.014,0.0,0.004,0.001
27/02/2022,07:35:09,0.015,0.0,0.004,0.0
27/02/2022,07:36:10,0.016,0.0,0.004,0.0
27/02/2022,07:37:09,0.016,0.0,0.004,0.0
27/02/2022,07:38:09,0.017,0.0,0.005,0.001
27/02/2022,07:39:10,0.017,0.0,0.005,0.0
27/02/2022,07:40:18,0.019,0.0,0.005,0.0
27/02/2022,07:41:17,0.019,0.0,0.005,0.0
27/02/2022,07:42:10,0.018,0.0,0.006,0.001
27/02/2022,07:43:10,0.020,0.0,0.006,0.0
27/02/2022,07:44:11,0.020,0.0,0.006,0.0
27/02/2022,07:45:10,0.021,0.0,0.007,0.001
27/02/2022,07:46:10,0.022,0.0,0.007,0.0
27/02/2022,07:47:10,0.023,0.0,0.007,0.0
27/02/2022,07:48:18,0.023,0.0,0.008,0.001
27/02/2022,07:49:09,0.024,0.0,0.008,0.0
27/02/2022,07:50:09,0.025,0.0,0.009,0.001
27/02/2022,07:51:10,0.026,0.0,0.009,0.0
27/02/2022,07:52:09,0.026,0.0,0.01,0.001
27/02/2022,07:53:09,0.028,0.0,0.01,0.0
27/02/2022,07:54:10,0.028,0.0,0.01,0.0
27/02/2022,07:55:26,0.028,0.0,0.011,0.001
27/02/2022,07:57:10,0.031,0.0,0.012,0.001
27/02/2022,07:58:09,0.031,0.0,0.012,0.0
27/02/2022,07:59:18,0.032,0.0,0.013,0.001
27/02/2022,08:00:10,0.033,0.0,0.013,0.0
27/02/2022,08:01:10,0.034,0.0,0.014,0.001
27/02/2022,08:02:10,0.035,0.0,0.015,0.001
27/02/2022,08:03:10,0.036,0.0,0.015,0.0
27/02/2022,08:04:10,0.038,0.0,0.016,0.001
27/02/2022,08:05:10,0.039,0.0,0.016,0.0
27/02/2022,08:06:10,0.039,0.0,0.017,0.001
27/02/2022,08:07:18,0.040,0.0,0.018,0.001
27/02/2022,08:08:09,0.041,0.0,0.018,0.0
27/02/2022,08:09:09,0.043,0.0,0.019,0.001
27/02/2022,08:10:10,0.043,0.0,0.02,0.001
27/02/2022,08:11:10,0.044,0.0,0.021,0.001
27/02/2022,08:12:09,0.045,0.0,0.021,0.0
27/02/2022,08:13:10,0.046,0.0,0.022,0.001
27/02/2022,08:14:11,0.049,0.0,0.023,0.001
27/02/2022,08:15:10,0.049,0.0,0.024,0.001
27/02/2022,08:16:10,0.050,0.0,0.024,0.0
27/02/2022,08:17:10,0.051,0.0,0.025,0.001
27/02/2022,08:18:10,0.052,0.0,0.026,0.001
27/02/2022,08:19:09,0.053,0.0,0.027,0.001
27/02/2022,08:20:10,0.055,0.0,0.028,0.001
27/02/2022,08:21:10,0.057,0.0,0.029,0.001
27/02/2022,08:22:10,0.058,0.0,0.03,0.001
27/02/2022,08:23:10,0.059,0.0,0.031,0.001
27/02/2022,08:24:09,0.061,0.0,0.032,0.001
27/02/2022,08:25:18,0.062,0.0,0.033,0.001
27/02/2022,08:26:18,0.064,0.0,0.034,0.001
27/02/2022,08:27:10,0.064,0.0,0.035,0.001
27/02/2022,08:28:09,0.066,0.0,0.036,0.001
27/02/2022,08:29:09,0.067,0.0,0.037,0.001
27/02/2022,08:30:10,0.068,0.0,0.038,0.001
27/02/2022,08:31:10,0.071,0.0,0.039,0.001
27/02/2022,08:32:09,0.072,0.0,0.041,0.002
27/02/2022,08:33:19,0.074,0.0,0.042,0.001
27/02/2022,08:34:08,0.076,0.0,0.043,0.001
27/02/2022,08:35:10,0.077,0.0,0.044,0.001
27/02/2022,08:36:10,0.079,0.0,0.046,0.002
27/02/2022,08:37:18,0.080,0.0,0.047,0.001
27/02/2022,08:37:57,0.081,0.0,0.048,0.001
27/02/2022,08:39:10,0.083,0.0,0.05,0.002
27/02/2022,08:40:10,0.085,0.0,0.051,0.001
27/02/2022,08:41:10,0.087,0.0,0.053,0.002
27/02/2022,08:42:10,0.089,0.0,0.054,0.001
27/02/2022,08:43:09,0.090,0.0,0.056,0.002
27/02/2022,08:44:12,0.093,0.0,0.057,0.001
27/02/2022,08:45:10,0.094,0.0,0.059,0.002
27/02/2022,08:46:09,0.096,0.0,0.06,0.001
27/02/2022,08:47:11,0.098,0.0,0.062,0.002
27/02/2022,08:48:10,0.100,0.0,0.063,0.001
27/02/2022,08:49:09,0.103,0.0,0.065,0.002
27/02/2022,08:50:10,0.103,0.0,0.067,0.002
27/02/2022,08:51:10,0.105,0.0,0.069,0.002
27/02/2022,08:52:18,0.108,0.0,0.071,0.002
27/02/2022,08:53:09,0.109,0.0,0.072,0.001
27/02/2022,08:54:09,0.111,0.0,0.074,0.002
27/02/2022,08:55:10,0.114,0.0,0.076,0.002
27/02/2022,08:56:10,0.113,0.0,0.078,0.002
27/02/2022,08:57:10,0.117,0.0,0.08,0.002
27/02/2022,08:58:01,0.119,0.0,0.081,0.001
27/02/2022,08:59:10,0.121,0.0,0.084,0.003
27/02/2022,09:00:18,0.124,0.0,0.086,0.002
27/02/2022,09:01:08,0.125,0.0,0.088,0.002
27/02/2022,09:02:10,0.127,0.0,0.09,0.002
27/02/2022,09:03:10,0.130,0.0,0.092,0.002
27/02/2022,09:04:18,0.131,0.0,0.095,0.003
27/02/2022,09:05:09,0.133,0.0,0.096,0.001
27/02/2022,09:06:10,0.136,0.0,0.099,0.003
27/02/2022,09:07:10,0.139,0.0,0.101,0.002
27/02/2022,09:08:10,0.140,0.0,0.103,0.002
27/02/2022,09:09:09,0.143,0.0,0.106,0.003
27/02/2022,09:10:19,0.146,0.0,0.108,0.002
27/02/2022,09:11:18,0.147,0.0,0.111,0.003
27/02/2022,09:12:10,0.150,0.0,0.113,0.002
27/02/2022,09:13:10,0.151,0.0,0.116,0.003
27/02/2022,09:14:10,0.154,0.0,0.118,0.002
27/02/2022,09:15:09,0.157,0.0,0.121,0.003
27/02/2022,09:16:10,0.160,0.0,0.123,0.002
27/02/2022,09:17:10,0.162,0.0,0.126,0.003
27/02/2022,09:18:10,0.164,0.0,0.129,0.003
27/02/2022,09:19:10,0.166,0.0,0.131,0.002
27/02/2022,09:20:10,0.169,0.0,0.134,0.003
27/02/2022,09:21:09,0.170,0.0,0.137,0.003
27/02/2022,09:22:10,0.174,0.0,0.14,0.003
27/02/2022,09:23:10,0.176,0.0,0.143,0.003
27/02/2022,09:24:10,0.178,0.0,0.146,0.003
27/02/2022,09:25:18,0.182,0.0,0.149,0.003
27/02/2022,09:26:10,0.184,0.0,0.152,0.003
27/02/2022,09:27:10,0.187,0.0,0.155,0.003
27/02/2022,09:28:10,0.187,0.0,0.158,0.003
27/02/2022,09:29:19,0.192,0.0,0.162,0.004
27/02/2022,09:30:17,0.194,0.0,0.165,0.003
27/02/2022,09:31:10,0.196,0.0,0.168,0.003
27/02/2022,09:32:09,0.199,0.0,0.171,0.003
27/02/2022,09:33:18,0.202,0.0,0.175,0.004
27/02/2022,09:34:10,0.204,0.0,0.178,0.003
27/02/2022,09:35:10,0.207,0.0,0.181,0.003
27/02/2022,09:36:10,0.210,0.0,0.185,0.004
27/02/2022,09:37:18,0.212,0.0,0.189,0.004
27/02/2022,09:38:10,0.214,0.0,0.192,0.003
27/02/2022,09:39:09,0.218,1.0,0.195,0.003
27/02/2022,09:40:09,0.220,1.0,0.199,0.004
27/02/2022,09:41:10,0.223,1.0,0.203,0.004
27/02/2022,09:42:10,0.225,1.0,0.206,0.003
27/02/2022,09:43:10,0.227,1.0,0.21,0.004
27/02/2022,09:44:10,0.231,1.0,0.214,0.004
27/02/2022,09:45:10,0.234,1.0,0.218,0.004
27/02/2022,09:46:09,0.236,1.0,0.222,0.004
27/02/2022,09:47:10,0.239,1.0,0.226,0.004
27/02/2022,09:48:10,0.241,1.0,0.23,0.004
27/02/2022,09:49:10,0.244,1.0,0.234,0.004
27/02/2022,09:50:10,0.247,1.0,0.238,0.004
27/02/2022,09:51:10,0.250,1.0,0.242,0.004
27/02/2022,09:52:10,0.252,1.0,0.246,0.004
27/02/2022,09:53:10,0.256,1.0,0.25,0.004
27/02/2022,09:54:10,0.257,1.0,0.255,0.005
27/02/2022,09:55:10,0.261,1.0,0.259,0.004
27/02/2022,09:56:10,0.264,1.0,0.263,0.004
27/02/2022,09:57:10,0.266,1.0,0.268,0.005
27/02/2022,09:58:10,0.269,1.0,0.272,0.004
27/02/2022,09:59:09,0.271,1.0,0.277,0.005
27/02/2022,10:00:10,0.274,1.0,0.281,0.004
27/02/2022,10:01:10,0.276,1.0,0.286,0.005
27/02/2022,10:02:10,0.279,1.0,0.291,0.005
27/02/2022,10:03:18,0.283,1.0,0.296,0.005
27/02/2022,10:04:19,0.285,1.0,0.301,0.005
27/02/2022,10:05:10,0.287,1.0,0.305,0.004
27/02/2022,10:06:10,0.291,1.0,0.31,0.005
27/02/2022,10:07:10,0.293,1.0,0.315,0.005
27/02/2022,10:08:10,0.296,1.0,0.319,0.004
27/02/2022,10:09:09,0.299,1.0,0.324,0.005
27/02/2022,10:10:10,0.301,1.0,0.329,0.005
27/02/2022,10:11:10,0.304,1.0,0.334,0.005
27/02/2022,10:12:10,0.307,1.0,0.34,0.006
27/02/2022,10:13:10,0.311,1.0,0.345,0.005
27/02/2022,10:14:09,0.313,1.0,0.35,0.005
27/02/2022,10:15:10,0.315,1.0,0.355,0.005
27/02/2022,10:16:10,0.317,1.0,0.36,0.005
27/02/2022,10:17:10,0.321,1.0,0.366,0.006
27/02/2022,10:18:10,0.324,1.0,0.371,0.005
27/02/2022,10:19:18,0.327,1.0,0.377,0.006
27/02/2022,10:20:10,0.329,1.0,0.382,0.005
27/02/2022,10:21:10,0.332,1.0,0.387,0.005